DELTA 2 R/B

Satellite information

Favourite Embed

Satellite Type and Status

ROCKET BODYIN ORBIT

Key statistics

Satellite DELTA 2 R/B at a glance.

Uptime

10450

Days in orbit

Revolutions

≈ 14.5

Per day

Orbit

LEO

Low Earth Orbit

Inclination

86.9

Latest

Satellite identification and parameters

Extended collection of information and parameters for DELTA 2 R/B.

Object identification

Identified? True

Debris? False

Object name: DELTA 2 R/B

International designator: 1997-020F

Object number (NORAD): 24797

Object ID (CCSDS): 24797

Country: UNITED STATES OF AMERICA (US)

Current information (Y/N): Y

RCS size: LARGE

Orbital parameters

Period: 99.473 minutes

Inclination: 86.8928 deg

SMA: 7111.529 km

Apoapsis: 887.615 km

Periapsis: 579.173 km

RAAN: 295.8871 deg

Eccentricy: 0.02168604

Argument of periapsis: 42.6347 deg

Mean anomaly: 129.0209 deg

Mean motion: 14.47632469 rev/day

Mean motion (dot): 0.00001619 rev/day2

B* drag term: 0.00032109966 1/REarth

Two-line elements (TLE)

Creation date: Dec. 14, 2025, 3:07 a.m.

Reference frame: TEME

Reference center: EARTH

Epoch: Dec. 13, 2025, 3:46 p.m. UTC

TLE line 0: 0 DELTA 2 R/B

TLE line 1: 1 24797U 97020F 25347.65731958 .00001619 00000-0 32110-3 0 9999

TLE line 2: 2 24797 86.8928 295.8871 0216860 42.6347 129.0209 14.47632469505741

Live tracking on map

Real-time ground track for satellite DELTA 2 R/B.

In-orbit conjunctions

A list of the most updated potential collisions computed for object DELTA 2 R/B.

Target Orbit TCA Probability of collision Miss distance Type
FENGYUN 1C DEB SSO 2025-08-28 14:22:11 0.0002447958 613.0 (m) DEBRIS
ATLAS CENTAUR R/B LEO 2025-08-06 04:13:01 0.0002892782 339.0 (m) ROCKET BODY
CZ-6A DEB LEO 2025-04-12 12:39:54 0.0001936757 341.0 (m) DEBRIS
COSMOS 1867 COOLANT LEO 2024-12-10 05:31:29 0.0001435911 832.0 (m) DEBRIS
NOAA 16 DEB SSO 2024-11-14 02:49:57 0.000231766 408.0 (m) DEBRIS

Associated space launch

Iridium provides global mobile telecommunications services using a constellation of 66 low earth orbit satellites in a 86.4° inclined orbit. Although 77 satellites were originally envisioned for the system and spawned the name based on the 77th element in the periodic table, the system has been scaled back. Motorola's Satellite Communications Group designed and manufactured the Iridium satellites with Lockheed Martin providing the LM-700A spacecraft buses.

DELTA 2 R/B was lifted into orbit during the mission ‘Delta II | Iridium 04 to 08’, on board a Delta II space rocket.

The launch took place on May 5, 1997, 2:55 p.m. from Space Launch Complex 2W.

For more information about the launch, click the button.

Launch to space Delta II | Iridium 04 to 08
Delta II | Iridium 04 to 08

Agency: N/A

Status: Launch Successful

Launch date: May 5, 1997, 2:55 p.m. UTC

Rocket: Delta II

Launch pad: Space Launch Complex 2W

Location: Vandenberg SFB, CA, USA

...

Latest news about this satellite

There are no fresh news available about this satellite. Check back as we update our databases every day.


Newsletter sign-up

Weekly statistics, charts and insights to help you stay on top of the space industry.